Time,TemperatureF,DewpointF,PressureIn,WindDirection,WindDirectionDegrees,WindSpeedMPH,WindSpeedGustMPH,Humidity,HourlyPrecipIn,Conditions,Clouds,dailyrainin,SoftwareType,DateUTC
2013-03-26 00:05:00,32.9,22.0,30.09,NW,315,3.8,10.4,64,0.00,RA,FEW,0.00,WeatherDisplay:10.37,2013-03-26 05:05:00,
2013-03-26 00:10:00,32.9,22.0,30.09,West,270,3.8,8.1,64,0.00,OVC,FEW,0.00,WeatherDisplay:10.37,2013-03-26 05:10:00,
2013-03-26 00:17:00,32.9,22.0,30.09,West,270,2.2,5.8,64,0.00,OVC,FEW,0.00,WeatherDisplay:10.37,2013-03-26 05:17:00,
2013-03-26 00:22:00,32.9,22.4,30.09,NW,315,3.1,5.8,65,0.00,OVC,FEW,0.00,WeatherDisplay:10.37,2013-03-26 05:22:00,
2013-03-26 00:28:00,32.9,22.4,30.10,NW,315,3.1,6.9,65,0.00,OVC,FEW,0.00,WeatherDisplay:10.37,2013-03-26 05:28:00,
2013-03-26 00:33:00,32.7,22.6,30.10,NW,315,3.1,5.4,66,0.00,OVC,FEW,0.00,WeatherDisplay:10.37,2013-03-26 05:33:00,
2013-03-26 00:39:00,32.7,22.2,30.09,NW,315,3.8,8.1,65,0.00,OVC,FEW,0.00,WeatherDisplay:10.37,2013-03-26 05:39:00,
2013-03-26 00:45:00,32.7,22.6,30.10,NW,315,0.7,5.8,66,0.00,OVC,FEW,0.00,WeatherDisplay:10.37,2013-03-26 05:45:00,
2013-03-26 00:50:00,32.7,22.2,30.10,NW,315,3.8,8.1,65,0.00,OVC,FEW,0.00,WeatherDisplay:10.37,2013-03-26 05:50:00,
2013-03-26 00:56:00,32.7,22.2,30.10,NW,315,2.2,5.8,65,0.00,OVC,FEW,0.00,WeatherDisplay:10.37,2013-03-26 05:56:00,
2013-03-26 01:01:00,32.7,21.9,30.10,NW,315,3.8,6.9,64,0.00,OVC,FEW,0.00,WeatherDisplay:10.37,2013-03-26 06:01:00,
2013-03-26 01:07:00,32.7,21.9,30.10,West,270,3.1,5.8,64,0.00,OVC,FEW,0.00,WeatherDisplay:10.37,2013-03-26 06:07:00,
2013-03-26 01:13:00,32.9,22.0,30.10,North,0,3.1,9.2,64,0.00,OVC,FEW,0.00,WeatherDisplay:10.37,2013-03-26 06:13:00,
2013-03-26 01:18:00,32.7,21.5,30.10,NW,315,3.8,8.1,63,0.00,OVC,FEW,0.00,WeatherDisplay:10.37,2013-03-26 06:18:00,
2013-03-26 01:24:00,32.7,21.5,30.10,NW,315,3.8,8.1,63,0.00,OVC,FEW,0.00,WeatherDisplay:10.37,2013-03-26 06:24:00,
2013-03-26 01:29:00,32.7,21.9,30.11,NW,315,4.5,10.4,64,0.00,OVC,FEW,0.00,WeatherDisplay:10.37,2013-03-26 06:29:00,
2013-03-26 01:35:00,32.7,21.9,30.11,NW,315,4.5,8.1,64,0.00,OVC,FEW,0.00,WeatherDisplay:10.37,2013-03-26 06:35:00,
2013-03-26 01:41:00,32.5,22.1,30.10,NW,315,2.2,4.5,65,0.00,OVC,FEW,0.00,WeatherDisplay:10.37,2013-03-26 06:41:00,
2013-03-26 01:46:00,32.5,22.8,30.10,NW,315,2.2,5.8,67,0.00,OVC,FEW,0.00,WeatherDisplay:10.37,2013-03-26 06:46:00,
2013-03-26 01:52:00,32.5,23.1,30.10,NW,315,3.8,6.9,68,0.00,OVC,FEW,0.00,WeatherDisplay:10.37,2013-03-26 06:52:00,
2013-03-26 01:57:00,32.4,23.3,30.11,NW,315,2.2,4.6,69,0.00,OVC,FEW,0.00,WeatherDisplay:10.37,2013-03-26 06:57:00,
2013-03-26 02:03:00,32.4,23.3,30.11,NW,315,2.2,4.6,69,0.00,OVC,FEW,0.00,WeatherDisplay:10.37,2013-03-26 07:03:00,
2013-03-26 02:09:00,32.4,23.3,30.10,NW,315,3.1,6.0,69,0.00,OVC,FEW,0.00,WeatherDisplay:10.37,2013-03-26 07:09:00,
2013-03-26 02:14:00,32.2,23.1,30.10,NW,315,1.6,4.6,69,0.00,OVC,FEW,0.00,WeatherDisplay:10.37,2013-03-26 07:14:00,
2013-03-26 02:20:00,32.2,23.5,30.10,NW,315,2.2,4.6,70,0.00,OVC,FEW,0.00,WeatherDisplay:10.37,2013-03-26 07:20:00,
2013-03-26 02:25:00,32.2,23.5,30.10,NW,315,2.2,5.8,70,0.00,OVC,FEW,0.00,WeatherDisplay:10.37,2013-03-26 07:25:00,
2013-03-26 02:32:00,32.2,23.8,30.10,West,270,3.1,5.8,71,0.00,OVC,FEW,0.00,WeatherDisplay:10.37,2013-03-26 07:32:00,
2013-03-26 02:37:00,32.0,23.7,30.10,West,270,1.6,5.8,71,0.00,OVC,FEW,0.00,WeatherDisplay:10.37,2013-03-26 07:37:00,
2013-03-26 02:43:00,32.0,23.7,30.10,West,270,3.8,5.8,71,0.00,OVC,FEW,0.00,WeatherDisplay:10.37,2013-03-26 07:43:00,
2013-03-26 02:49:00,32.0,24.0,30.10,North,0,2.2,6.9,72,0.00,OVC,FEW,0.00,WeatherDisplay:10.37,2013-03-26 07:49:00,
2013-03-26 02:54:00,31.8,23.8,30.10,NW,315,3.8,8.1,72,0.00,OVC,FEW,0.00,WeatherDisplay:10.37,2013-03-26 07:54:00,
2013-03-26 03:00:00,31.8,23.8,30.10,NW,315,2.2,8.1,72,0.00,OVC,FEW,0.00,WeatherDisplay:10.37,2013-03-26 08:00:00,
2013-03-26 03:05:00,31.8,23.8,30.10,NW,315,2.2,4.6,72,0.00,OVC,FEW,0.00,WeatherDisplay:10.37,2013-03-26 08:05:00,
2013-03-26 03:11:00,31.8,24.1,30.11,NW,315,0.7,8.1,73,0.00,OVC,FEW,0.00,WeatherDisplay:10.37,2013-03-26 08:11:00,
2013-03-26 03:17:00,31.6,24.3,30.10,West,270,2.2,4.6,74,0.00,OVC,FEW,0.00,WeatherDisplay:10.37,2013-03-26 08:17:00,
2013-03-26 03:22:00,31.5,24.1,30.11,NW,315,6.0,9.2,74,0.00,OVC,FEW,0.00,WeatherDisplay:10.37,2013-03-26 08:22:00,
2013-03-26 03:28:00,31.5,24.4,30.10,NW,315,3.8,8.1,75,0.00,OVC,FEW,0.00,WeatherDisplay:10.37,2013-03-26 08:28:00,
2013-03-26 03:33:00,31.5,24.4,30.10,West,270,2.2,6.9,75,0.00,OVC,FEW,0.00,WeatherDisplay:10.37,2013-03-26 08:33:00,
2013-03-26 03:39:00,31.5,24.4,30.10,NW,315,4.5,8.1,75,0.00,OVC,FEW,0.00,WeatherDisplay:10.37,2013-03-26 08:39:00,
2013-03-26 03:45:00,31.3,24.3,30.11,North,0,1.6,9.2,75,0.00,OVC,FEW,0.00,WeatherDisplay:10.37,2013-03-26 08:45:00,
2013-03-26 03:50:00,31.3,24.3,30.11,NW,315,2.2,8.1,75,0.00,OVC,FEW,0.00,WeatherDisplay:10.37,2013-03-26 08:50:00,
2013-03-26 03:57:00,31.3,24.3,30.11,NW,315,3.1,5.8,75,0.00,OVC,FEW,0.00,WeatherDisplay:10.37,2013-03-26 08:57:00,
2013-03-26 04:02:00,31.1,24.4,30.11,West,270,1.6,3.5,76,0.00,OVC,FEW,0.00,WeatherDisplay:10.37,2013-03-26 09:02:00,
2013-03-26 04:08:00,31.1,24.1,30.11,NW,315,6.0,6.0,75,0.00,OVC,FEW,0.00,WeatherDisplay:10.37,2013-03-26 09:08:00,
2013-03-26 04:13:00,31.1,24.1,30.11,North,0,1.6,6.9,75,0.00,OVC,FEW,0.00,WeatherDisplay:10.37,2013-03-26 09:13:00,
2013-03-26 04:19:00,31.1,24.1,30.11,NW,315,1.6,5.8,75,0.00,OVC,FEW,0.00,WeatherDisplay:10.37,2013-03-26 09:19:00,
2013-03-26 04:25:00,30.9,23.9,30.11,NW,315,1.6,8.1,75,0.00,OVC,FEW,0.00,WeatherDisplay:10.37,2013-03-26 09:25:00,
2013-03-26 04:30:00,30.7,23.8,30.11,NW,315,3.1,8.1,75,0.00,OVC,FEW,0.00,WeatherDisplay:10.37,2013-03-26 09:30:00,
2013-03-26 04:36:00,30.6,23.3,30.12,NW,315,3.1,10.4,74,0.00,OVC,FEW,0.00,WeatherDisplay:10.37,2013-03-26 09:36:00,
2013-03-26 04:42:00,30.2,23.2,30.12,NW,315,4.5,8.1,75,0.00,OVC,FEW,0.00,WeatherDisplay:10.37,2013-03-26 09:42:00,
2013-03-26 04:47:00,30.0,23.1,30.12,NW,315,2.2,8.1,75,0.00,OVC,FEW,0.00,WeatherDisplay:10.37,2013-03-26 09:47:00,
2013-03-26 04:53:00,29.8,23.2,30.12,NW,315,1.6,8.1,76,0.00,OVC,FEW,0.00,WeatherDisplay:10.37,2013-03-26 09:53:00,
2013-03-26 04:58:00,29.7,23.0,30.12,NW,315,4.5,7.6,76,0.00,OVC,FEW,0.00,WeatherDisplay:10.37,2013-03-26 09:58:00,
2013-03-26 05:04:00,29.5,22.8,30.12,West,270,1.6,3.5,76,0.00,OVC,FEW,0.00,WeatherDisplay:10.37,2013-03-26 10:04:00,
2013-03-26 05:09:00,29.5,22.8,30.12,NW,315,3.1,6.9,76,0.00,OVC,FEW,0.00,WeatherDisplay:10.37,2013-03-26 10:09:00,
2013-03-26 05:15:00,29.1,22.5,30.12,NW,315,3.1,8.1,76,0.00,OVC,FEW,0.00,WeatherDisplay:10.37,2013-03-26 10:15:00,
2013-03-26 05:21:00,29.1,22.5,30.13,NW,315,3.1,9.2,76,0.00,OVC,FEW,0.00,WeatherDisplay:10.37,2013-03-26 10:21:00,
2013-03-26 05:26:00,28.9,22.6,30.12,NW,315,1.6,5.8,77,0.00,OVC,FEW,0.00,WeatherDisplay:10.37,2013-03-26 10:26:00,
2013-03-26 05:32:00,28.8,22.5,30.12,NW,315,2.2,5.4,77,0.00,OVC,FEW,0.00,WeatherDisplay:10.37,2013-03-26 10:32:00,
2013-03-26 05:37:00,28.8,22.5,30.13,West,270,3.1,6.9,77,0.00,OVC,FEW,0.00,WeatherDisplay:10.37,2013-03-26 10:37:00,
2013-03-26 05:43:00,28.6,22.3,30.13,SW,225,3.1,6.9,77,0.00,OVC,FEW,0.00,WeatherDisplay:10.37,2013-03-26 10:43:00,
2013-03-26 05:49:00,28.4,22.1,30.13,North,0,3.1,6.0,77,0.00,OVC,FEW,0.00,WeatherDisplay:10.37,2013-03-26 10:49:00,
2013-03-26 05:54:00,28.4,22.1,30.13,NW,315,1.6,3.5,77,0.00,OVC,FEW,0.00,WeatherDisplay:10.37,2013-03-26 10:54:00,
2013-03-26 06:00:00,28.2,21.9,30.13,NW,315,1.6,5.8,77,0.00,OVC,FEW,0.00,WeatherDisplay:10.37,2013-03-26 11:00:00,
2013-03-26 06:05:00,27.9,21.9,30.13,NW,315,0.7,3.5,78,0.00,OVC,FEW,0.00,WeatherDisplay:10.37,2013-03-26 11:05:00,
2013-03-26 06:11:00,27.7,21.7,30.14,West,270,1.6,8.1,78,0.00,OVC,FEW,0.00,WeatherDisplay:10.37,2013-03-26 11:11:00,
2013-03-26 06:17:00,27.7,21.7,30.14,NW,315,1.6,5.8,78,0.00,OVC,FEW,0.00,WeatherDisplay:10.37,2013-03-26 11:17:00,
2013-03-26 06:22:00,27.5,21.8,30.14,NE,45,0.7,4.6,79,0.00,OVC,FEW,0.00,WeatherDisplay:10.37,2013-03-26 11:22:00,
2013-03-26 06:28:00,27.5,21.8,30.14,NW,315,3.1,3.5,79,0.00,OVC,FEW,0.00,WeatherDisplay:10.37,2013-03-26 11:28:00,
2013-03-26 06:33:00,27.3,21.7,30.14,West,270,1.6,5.8,79,0.00,OVC,FEW,0.00,WeatherDisplay:10.37,2013-03-26 11:33:00,
2013-03-26 06:39:00,27.1,21.5,30.14,North,0,1.6,4.6,79,0.00,OVC,FEW,0.00,WeatherDisplay:10.37,2013-03-26 11:39:00,
2013-03-26 06:45:00,27.0,21.3,30.14,NW,315,3.1,5.4,79,0.00,OVC,FEW,0.00,WeatherDisplay:10.37,2013-03-26 11:45:00,
2013-03-26 06:50:00,27.0,21.3,30.15,North,0,0.7,3.5,79,0.00,OVC,FEW,0.00,WeatherDisplay:10.37,2013-03-26 11:50:00,
2013-03-26 06:56:00,26.6,21.0,30.15,NW,315,1.6,4.6,79,0.00,OVC,FEW,0.00,WeatherDisplay:10.37,2013-03-26 11:56:00,
2013-03-26 07:01:00,26.6,21.3,30.15,NW,315,2.2,4.5,80,0.00,OVC,FEW,0.00,WeatherDisplay:10.37,2013-03-26 12:01:00,
2013-03-26 07:07:00,26.4,21.1,30.15,West,270,1.6,3.5,80,0.00,OVC,FEW,0.00,WeatherDisplay:10.37,2013-03-26 12:07:00,
2013-03-26 07:13:00,26.2,20.9,30.16,NW,315,2.2,5.8,80,0.00,OVC,FEW,0.00,WeatherDisplay:10.37,2013-03-26 12:13:00,
2013-03-26 07:18:00,26.2,20.9,30.16,West,270,1.6,4.6,80,0.00,OVC,FEW,0.00,WeatherDisplay:10.37,2013-03-26 12:18:00,
2013-03-26 07:24:00,26.1,20.7,30.16,NW,315,3.1,3.5,80,0.00,OVC,FEW,0.00,WeatherDisplay:10.37,2013-03-26 12:24:00,
2013-03-26 07:29:00,26.1,20.7,30.16,NW,315,3.8,5.8,80,0.00,OVC,FEW,0.00,WeatherDisplay:10.37,2013-03-26 12:29:00,
2013-03-26 07:35:00,26.2,20.9,30.16,NW,315,2.2,6.0,80,0.00,OVC,FEW,0.00,WeatherDisplay:10.37,2013-03-26 12:35:00,
2013-03-26 07:41:00,26.6,21.0,30.17,NW,315,3.1,4.6,79,0.00,OVC,FEW,0.00,WeatherDisplay:10.37,2013-03-26 12:41:00,
2013-03-26 07:46:00,27.7,21.4,30.17,NW,315,2.2,5.8,77,0.00,OVC,FEW,0.00,WeatherDisplay:10.37,2013-03-26 12:46:00,
2013-03-26 07:52:00,27.9,21.0,30.17,NW,315,3.1,8.1,75,0.00,OVC,FEW,0.00,WeatherDisplay:10.37,2013-03-26 12:52:00,
2013-03-26 07:57:00,28.2,21.0,30.17,North,0,1.6,5.8,74,0.00,OVC,FEW,0.00,WeatherDisplay:10.37,2013-03-26 12:57:00,
2013-03-26 08:03:00,28.6,20.7,30.17,NW,315,2.2,6.9,72,0.00,OVC,FEW,0.00,WeatherDisplay:10.37,2013-03-26 13:03:00,
2013-03-26 08:09:00,29.1,21.2,30.18,North,0,1.6,5.8,72,0.00,OVC,FEW,0.00,WeatherDisplay:10.37,2013-03-26 13:09:00,
2013-03-26 08:14:00,29.7,21.1,30.18,NW,315,3.1,10.4,70,0.00,OVC,FEW,0.00,WeatherDisplay:10.37,2013-03-26 13:14:00,
2013-03-26 08:20:00,30.7,21.8,30.18,NW,315,4.5,7.6,69,0.00,OVC,FEW,0.00,WeatherDisplay:10.37,2013-03-26 13:20:00,
2013-03-26 08:25:00,31.8,21.7,30.18,WNW,292,2.2,4.6,66,0.00,OVC,FEW,0.00,WeatherDisplay:10.37,2013-03-26 13:25:00,
2013-03-26 08:31:00,31.6,21.2,30.18,NW,315,3.1,8.1,65,0.00,OVC,FEW,0.00,WeatherDisplay:10.37,2013-03-26 13:31:00,
2013-03-26 08:37:00,30.9,20.9,30.18,NW,315,2.2,10.4,66,0.00,OVC,FEW,0.00,WeatherDisplay:10.37,2013-03-26 13:37:00,
2013-03-26 08:42:00,30.9,20.2,30.19,NW,315,6.9,10.4,64,0.00,OVC,FEW,0.00,WeatherDisplay:10.37,2013-03-26 13:42:00,
2013-03-26 08:48:00,31.1,21.1,30.19,NW,315,3.8,6.9,66,0.00,OVC,FEW,0.00,WeatherDisplay:10.37,2013-03-26 13:48:00,
2013-03-26 08:53:00,30.7,20.7,30.19,NW,315,4.5,9.2,66,0.00,OVC,FEW,0.00,WeatherDisplay:10.37,2013-03-26 13:53:00,
2013-03-26 08:59:00,30.9,21.6,30.19,West,270,6.0,9.2,68,0.00,OVC,FEW,0.00,WeatherDisplay:10.37,2013-03-26 13:59:00,
2013-03-26 09:05:00,30.6,21.2,30.19,NW,315,6.0,8.3,68,0.00,OVC,FEW,0.00,WeatherDisplay:10.37,2013-03-26 14:05:00,
2013-03-26 09:10:00,31.1,22.1,30.19,North,0,5.4,9.2,69,0.00,OVC,FEW,0.00,WeatherDisplay:10.37,2013-03-26 14:10:00,
2013-03-26 09:17:00,32.0,22.3,30.19,NW,315,3.1,10.4,67,0.00,OVC,FEW,0.00,WeatherDisplay:10.37,2013-03-26 14:17:00,
2013-03-26 09:22:00,32.5,22.1,30.19,West,270,6.0,12.1,65,0.00,OVC,FEW,0.00,WeatherDisplay:10.37,2013-03-26 14:22:00,
2013-03-26 09:28:00,32.4,22.3,30.19,NW,315,4.5,9.2,66,0.00,OVC,FEW,0.00,WeatherDisplay:10.37,2013-03-26 14:28:00,
2013-03-26 09:33:00,33.1,22.6,30.19,North,0,3.1,9.2,65,0.00,OVC,FEW,0.00,WeatherDisplay:10.37,2013-03-26 14:33:00,
2013-03-26 09:39:00,33.3,22.8,30.19,North,0,3.8,8.1,65,0.00,OVC,FEW,0.00,WeatherDisplay:10.37,2013-03-26 14:39:00,
2013-03-26 09:45:00,33.8,22.9,30.20,North,0,3.8,6.9,64,0.00,OVC,FEW,0.00,WeatherDisplay:10.37,2013-03-26 14:45:00,
2013-03-26 09:50:00,34.2,22.9,30.20,North,0,2.2,8.1,63,0.00,OVC,FEW,0.00,WeatherDisplay:10.37,2013-03-26 14:50:00,
2013-03-26 09:57:00,35.1,23.3,30.20,North,0,1.6,10.4,62,0.00,OVC,FEW,0.00,WeatherDisplay:10.37,2013-03-26 14:57:00,
2013-03-26 10:02:00,34.7,21.8,30.20,West,270,3.1,12.7,59,0.00,OVC,FEW,0.00,WeatherDisplay:10.37,2013-03-26 15:02:00,
2013-03-26 10:08:00,35.1,22.6,30.20,NW,315,2.2,5.8,60,0.00,OVC,FEW,0.00,WeatherDisplay:10.37,2013-03-26 15:08:00,
2013-03-26 10:13:00,35.4,22.1,30.20,NE,45,3.1,12.7,58,0.00,OVC,FEW,0.00,WeatherDisplay:10.37,2013-03-26 15:13:00,
2013-03-26 10:19:00,35.8,22.4,30.20,NW,315,4.5,10.4,58,0.00,OVC,FEW,0.00,WeatherDisplay:10.37,2013-03-26 15:19:00,
2013-03-26 10:25:00,36.5,22.3,30.20,NW,315,4.5,9.2,56,0.00,OVC,FEW,0.00,WeatherDisplay:10.37,2013-03-26 15:25:00,
2013-03-26 10:30:00,38.1,23.4,30.20,NW,315,3.8,9.2,55,0.00,OVC,FEW,0.00,WeatherDisplay:10.37,2013-03-26 15:30:00,
2013-03-26 10:37:00,38.1,21.1,30.20,NW,315,6.9,10.7,50,0.00,OVC,FEW,0.00,WeatherDisplay:10.37,2013-03-26 15:37:00,
2013-03-26 10:42:00,38.5,20.5,30.20,North,0,3.8,9.2,48,0.00,OVC,FEW,0.00,WeatherDisplay:10.37,2013-03-26 15:42:00,
2013-03-26 10:48:00,38.1,21.1,30.20,North,0,1.6,8.1,50,0.00,OVC,FEW,0.00,WeatherDisplay:10.37,2013-03-26 15:48:00,
2013-03-26 10:53:00,37.8,20.8,30.20,North,0,7.6,11.5,50,0.00,OVC,FEW,0.00,WeatherDisplay:10.37,2013-03-26 15:53:00,
2013-03-26 10:59:00,37.8,19.8,30.20,West,270,6.0,11.5,48,0.00,OVC,FEW,0.00,WeatherDisplay:10.37,2013-03-26 15:59:00,
2013-03-26 11:05:00,37.9,20.0,30.20,NW,315,5.4,11.5,48,0.00,OVC,FEW,0.00,WeatherDisplay:10.37,2013-03-26 16:05:00,
2013-03-26 11:10:00,39.0,21.5,30.20,West,270,3.8,9.2,49,0.00,OVC,FEW,0.00,WeatherDisplay:10.37,2013-03-26 16:10:00,
2013-03-26 11:17:00,39.4,21.8,30.20,NE,45,1.6,4.6,49,0.00,OVC,FEW,0.00,WeatherDisplay:10.37,2013-03-26 16:17:00,
2013-03-26 11:22:00,40.6,22.9,30.20,SSW,202,1.6,5.4,49,0.00,OVC,FEW,0.00,WeatherDisplay:10.37,2013-03-26 16:22:00,
2013-03-26 11:28:00,39.2,21.6,30.20,NW,315,4.5,10.4,49,0.00,OVC,FEW,0.00,WeatherDisplay:10.37,2013-03-26 16:28:00,
2013-03-26 11:33:00,40.6,24.4,30.20,North,0,0.7,5.8,52,0.00,OVC,FEW,0.00,WeatherDisplay:10.37,2013-03-26 16:33:00,
2013-03-26 11:39:00,39.7,21.6,30.20,NW,315,3.1,10.4,48,0.00,OVC,FEW,0.00,WeatherDisplay:10.37,2013-03-26 16:39:00,
2013-03-26 11:45:00,41.2,21.9,30.20,West,270,4.5,7.6,46,0.00,OVC,FEW,0.00,WeatherDisplay:10.37,2013-03-26 16:45:00,
2013-03-26 11:50:00,40.8,22.1,30.20,NW,315,3.8,8.1,47,0.00,OVC,FEW,0.00,WeatherDisplay:10.37,2013-03-26 16:50:00,
2013-03-26 11:57:00,40.1,22.4,30.20,North,0,4.5,12.7,49,0.00,OVC,FEW,0.00,WeatherDisplay:10.37,2013-03-26 16:57:00,
2013-03-26 12:02:00,40.6,22.5,30.20,NW,315,4.5,10.4,48,0.00,OVC,FEW,0.00,WeatherDisplay:10.37,2013-03-26 17:02:00,
2013-03-26 12:08:00,38.1,20.6,30.19,NW,315,6.9,16.1,49,0.00,OVC,FEW,0.00,WeatherDisplay:10.37,2013-03-26 17:08:00,
2013-03-26 12:13:00,39.4,23.2,30.20,West,270,2.2,5.8,52,0.00,OVC,FEW,0.00,WeatherDisplay:10.37,2013-03-26 17:13:00,
2013-03-26 12:19:00,40.6,23.4,30.20,West,270,3.8,5.8,50,0.00,OVC,FEW,0.00,WeatherDisplay:10.37,2013-03-26 17:19:00,
2013-03-26 12:25:00,42.3,24.4,30.20,South,180,3.1,6.9,49,0.00,OVC,FEW,0.00,WeatherDisplay:10.37,2013-03-26 17:25:00,
2013-03-26 12:30:00,42.4,24.1,30.20,NW,315,3.1,8.1,48,0.00,OVC,FEW,0.00,WeatherDisplay:10.37,2013-03-26 17:30:00,
2013-03-26 12:37:00,42.1,23.3,30.19,NW,315,3.1,8.3,47,0.00,OVC,FEW,0.00,WeatherDisplay:10.37,2013-03-26 17:37:00,
2013-03-26 12:42:00,42.3,23.4,30.19,NW,315,1.6,8.1,47,0.00,OVC,FEW,0.00,WeatherDisplay:10.37,2013-03-26 17:42:00,
2013-03-26 12:48:00,41.9,24.1,30.19,South,180,3.8,8.1,49,0.00,OVC,FEW,0.00,WeatherDisplay:10.37,2013-03-26 17:48:00,
2013-03-26 12:53:00,41.5,24.3,30.19,NW,315,2.2,5.8,50,0.00,OVC,FEW,0.00,WeatherDisplay:10.37,2013-03-26 17:53:00,
2013-03-26 12:59:00,41.7,23.5,30.19,NW,315,3.1,8.1,48,0.00,OVC,FEW,0.00,WeatherDisplay:10.37,2013-03-26 17:59:00,
2013-03-26 13:05:00,41.9,23.6,30.19,NW,315,3.1,8.1,48,0.00,OVC,FEW,0.00,WeatherDisplay:10.37,2013-03-26 18:05:00,
2013-03-26 13:10:00,41.7,22.9,30.19,West,270,5.4,10.4,47,0.00,OVC,FEW,0.00,WeatherDisplay:10.37,2013-03-26 18:10:00,
2013-03-26 13:17:00,41.0,22.3,30.19,NW,315,5.4,10.7,47,0.00,OVC,FEW,0.00,WeatherDisplay:10.37,2013-03-26 18:17:00,
2013-03-26 13:22:00,40.8,22.6,30.19,NW,315,6.9,10.7,48,0.00,OVC,FEW,0.00,WeatherDisplay:10.37,2013-03-26 18:22:00,
2013-03-26 13:28:00,41.4,22.6,30.19,NW,315,2.2,8.1,47,0.00,OVC,FEW,0.00,WeatherDisplay:10.37,2013-03-26 18:28:00,
2013-03-26 13:33:00,41.5,21.8,30.19,South,180,3.1,8.1,45,0.00,OVC,FEW,0.00,WeatherDisplay:10.37,2013-03-26 18:33:00,
2013-03-26 13:39:00,41.0,22.8,30.19,WNW,292,3.8,10.4,48,0.00,OVC,FEW,0.00,WeatherDisplay:10.37,2013-03-26 18:39:00,
2013-03-26 13:45:00,40.8,22.1,30.19,SW,225,5.4,9.8,47,0.00,OVC,FEW,0.00,WeatherDisplay:10.37,2013-03-26 18:45:00,
2013-03-26 13:50:00,39.6,21.0,30.18,North,0,4.5,12.1,47,0.00,OVC,FEW,0.00,WeatherDisplay:10.37,2013-03-26 18:50:00,
2013-03-26 13:56:00,39.7,22.1,30.19,NW,315,1.6,10.4,49,0.00,OVC,FEW,0.00,WeatherDisplay:10.37,2013-03-26 18:56:00,
2013-03-26 14:02:00,39.6,21.5,30.19,NW,315,3.8,8.1,48,0.00,OVC,FEW,0.00,WeatherDisplay:10.37,2013-03-26 19:02:00,
2013-03-26 14:07:00,41.2,23.9,30.18,SW,225,4.5,10.7,50,0.00,OVC,FEW,0.00,WeatherDisplay:10.37,2013-03-26 19:07:00,
2013-03-26 14:13:00,39.7,21.6,30.19,West,270,3.8,9.2,48,0.00,OVC,FEW,0.00,WeatherDisplay:10.37,2013-03-26 19:13:00,
2013-03-26 14:18:00,39.7,22.1,30.19,NW,315,1.6,6.9,49,0.00,OVC,FEW,0.00,WeatherDisplay:10.37,2013-03-26 19:18:00,
2013-03-26 14:24:00,39.0,21.9,30.18,NW,315,3.8,8.1,50,0.00,OVC,FEW,0.00,WeatherDisplay:10.37,2013-03-26 19:24:00,
2013-03-26 14:29:00,39.0,21.5,30.18,West,270,2.2,10.4,49,0.00,OVC,FEW,0.00,WeatherDisplay:10.37,2013-03-26 19:29:00,
2013-03-26 14:35:00,38.5,20.5,30.18,North,0,3.1,10.4,48,0.00,OVC,FEW,0.00,WeatherDisplay:10.37,2013-03-26 19:35:00,
2013-03-26 14:41:00,38.1,19.6,30.18,NW,315,6.0,10.7,47,0.00,OVC,FEW,0.00,WeatherDisplay:10.37,2013-03-26 19:41:00,
2013-03-26 14:47:00,37.9,19.5,30.18,West,270,4.5,10.4,47,0.00,OVC,FEW,0.00,WeatherDisplay:10.37,2013-03-26 19:47:00,
2013-03-26 14:53:00,38.1,20.1,30.18,NW,315,6.0,10.7,48,0.00,OVC,FEW,0.00,WeatherDisplay:10.37,2013-03-26 19:53:00,
2013-03-26 14:58:00,38.1,20.6,30.18,West,270,5.4,13.0,49,0.00,OVC,FEW,0.00,WeatherDisplay:10.37,2013-03-26 19:58:00,
2013-03-26 15:04:00,38.5,20.5,30.18,NW,315,3.1,13.8,48,0.00,OVC,FEW,0.00,WeatherDisplay:10.37,2013-03-26 20:04:00,
2013-03-26 15:09:00,38.5,20.5,30.18,SW,225,3.1,6.9,48,0.00,OVC,FEW,0.00,WeatherDisplay:10.37,2013-03-26 20:09:00,
2013-03-26 15:15:00,38.5,21.0,30.18,West,270,5.4,15.0,49,0.00,OVC,FEW,0.00,WeatherDisplay:10.37,2013-03-26 20:15:00,
2013-03-26 15:21:00,38.5,20.5,30.18,NW,315,4.5,8.1,48,0.00,OVC,FEW,0.00,WeatherDisplay:10.37,2013-03-26 20:21:00,
2013-03-26 15:26:00,39.4,20.8,30.18,NW,315,2.2,6.9,47,0.00,OVC,FEW,0.00,WeatherDisplay:10.37,2013-03-26 20:26:00,
2013-03-26 15:32:00,39.7,17.9,30.18,NW,315,7.6,8.1,41,0.00,OVC,FEW,0.00,WeatherDisplay:10.37,2013-03-26 20:32:00,
2013-03-26 15:37:00,39.6,19.4,30.18,NW,315,8.3,14.5,44,0.00,OVC,FEW,0.00,WeatherDisplay:10.37,2013-03-26 20:37:00,
2013-03-26 15:43:00,38.8,18.8,30.19,NW,315,5.4,12.7,44,0.00,OVC,FEW,0.00,WeatherDisplay:10.37,2013-03-26 20:43:00,
2013-03-26 15:49:00,38.7,18.1,30.18,North,0,4.5,8.3,43,0.00,OVC,FEW,0.00,WeatherDisplay:10.37,2013-03-26 20:49:00,
2013-03-26 15:54:00,39.4,19.3,30.18,NW,315,6.9,11.4,44,0.00,OVC,FEW,0.00,WeatherDisplay:10.37,2013-03-26 20:54:00,
2013-03-26 16:00:00,38.8,17.7,30.18,NW,315,6.9,12.7,42,0.00,OVC,FEW,0.00,WeatherDisplay:10.37,2013-03-26 21:00:00,
2013-03-26 16:05:00,38.8,17.1,30.18,NW,315,4.5,10.4,41,0.00,OVC,FEW,0.00,WeatherDisplay:10.37,2013-03-26 21:05:00,
2013-03-26 16:11:00,38.8,17.7,30.18,NW,315,3.1,12.7,42,0.00,OVC,FEW,0.00,WeatherDisplay:10.37,2013-03-26 21:11:00,
2013-03-26 16:17:00,39.0,17.3,30.18,NW,315,4.5,12.7,41,0.00,OVC,FEW,0.00,WeatherDisplay:10.37,2013-03-26 21:17:00,
2013-03-26 16:22:00,38.7,17.5,30.19,NW,315,7.6,12.7,42,0.00,OVC,FEW,0.00,WeatherDisplay:10.37,2013-03-26 21:22:00,
2013-03-26 16:28:00,38.7,18.1,30.18,NW,315,4.5,12.7,43,0.00,OVC,FEW,0.00,WeatherDisplay:10.37,2013-03-26 21:28:00,
2013-03-26 16:33:00,38.8,18.2,30.18,NW,315,7.6,13.0,43,0.00,OVC,FEW,0.00,WeatherDisplay:10.37,2013-03-26 21:33:00,
2013-03-26 16:39:00,39.2,18.5,30.18,NW,315,4.5,10.4,43,0.00,OVC,FEW,0.00,WeatherDisplay:10.37,2013-03-26 21:39:00,
2013-03-26 16:45:00,39.4,17.0,30.18,North,0,5.4,10.4,40,0.00,OVC,FEW,0.00,WeatherDisplay:10.37,2013-03-26 21:45:00,
2013-03-26 16:50:00,39.2,16.9,30.18,North,0,5.4,9.2,40,0.00,OVC,FEW,0.00,WeatherDisplay:10.37,2013-03-26 21:50:00,
2013-03-26 16:56:00,38.8,17.1,30.18,NW,315,4.5,10.4,41,0.00,OVC,FEW,0.00,WeatherDisplay:10.37,2013-03-26 21:56:00,
2013-03-26 17:02:00,38.7,17.5,30.19,North,0,5.4,8.1,42,0.00,OVC,FEW,0.00,WeatherDisplay:10.37,2013-03-26 22:02:00,
2013-03-26 17:07:00,38.7,18.1,30.19,NW,315,1.6,5.8,43,0.00,OVC,FEW,0.00,WeatherDisplay:10.37,2013-03-26 22:07:00,
2013-03-26 17:13:00,38.8,17.7,30.19,NW,315,6.0,6.9,42,0.00,OVC,FEW,0.00,WeatherDisplay:10.37,2013-03-26 22:13:00,
2013-03-26 17:18:00,38.8,18.8,30.19,NW,315,3.1,8.1,44,0.00,OVC,FEW,0.00,WeatherDisplay:10.37,2013-03-26 22:18:00,
2013-03-26 17:24:00,38.7,19.1,30.19,North,0,1.6,8.1,45,0.00,OVC,FEW,0.00,WeatherDisplay:10.37,2013-03-26 22:24:00,
2013-03-26 17:29:00,38.5,18.4,30.19,West,270,2.2,5.8,44,0.00,OVC,FEW,0.00,WeatherDisplay:10.37,2013-03-26 22:29:00,
2013-03-26 17:35:00,38.3,17.7,30.19,NW,315,3.1,5.8,43,0.00,OVC,FEW,0.00,WeatherDisplay:10.37,2013-03-26 22:35:00,
2013-03-26 17:41:00,38.3,17.7,30.19,NW,315,3.1,8.1,43,0.00,OVC,FEW,0.00,WeatherDisplay:10.37,2013-03-26 22:41:00,
2013-03-26 17:47:00,38.3,18.3,30.19,NW,315,2.2,8.1,44,0.00,OVC,FEW,0.00,WeatherDisplay:10.37,2013-03-26 22:47:00,
2013-03-26 17:53:00,38.1,17.6,30.20,NNE,22,6.0,10.7,43,0.00,OVC,FEW,0.00,WeatherDisplay:10.37,2013-03-26 22:53:00,
2013-03-26 17:58:00,37.9,17.4,30.20,North,0,3.1,11.5,43,0.00,OVC,FEW,0.00,WeatherDisplay:10.37,2013-03-26 22:58:00,
2013-03-26 18:04:00,37.9,17.9,30.20,NW,315,3.1,8.1,44,0.00,OVC,FEW,0.00,WeatherDisplay:10.37,2013-03-26 23:04:00,
2013-03-26 18:09:00,37.8,18.3,30.20,NW,315,3.8,11.5,45,0.00,OVC,FEW,0.00,WeatherDisplay:10.37,2013-03-26 23:09:00,
2013-03-26 18:15:00,37.8,18.8,30.21,North,0,3.1,6.0,46,0.00,OVC,FEW,0.00,WeatherDisplay:10.37,2013-03-26 23:15:00,
2013-03-26 18:21:00,37.9,19.5,30.21,NW,315,1.6,5.8,47,0.00,OVC,FEW,0.00,WeatherDisplay:10.37,2013-03-26 23:21:00,
2013-03-26 18:26:00,37.8,19.3,30.20,NW,315,3.8,6.9,47,0.00,OVC,FEW,0.00,WeatherDisplay:10.37,2013-03-26 23:26:00,
2013-03-26 18:32:00,37.8,19.8,30.21,NW,315,1.6,3.5,48,0.00,OVC,FEW,0.00,WeatherDisplay:10.37,2013-03-26 23:32:00,
2013-03-26 18:37:00,37.6,20.1,30.21,NW,315,2.2,6.9,49,0.00,OVC,FEW,0.00,WeatherDisplay:10.37,2013-03-26 23:37:00,
2013-03-26 18:43:00,37.6,20.6,30.21,NW,315,1.6,5.8,50,0.00,OVC,FEW,0.00,WeatherDisplay:10.37,2013-03-26 23:43:00,
2013-03-26 18:49:00,37.4,20.4,30.21,NW,315,3.1,7.6,50,0.00,OVC,FEW,0.00,WeatherDisplay:10.37,2013-03-26 23:49:00,
2013-03-26 18:54:00,37.2,20.7,30.21,SW,225,1.6,8.1,51,0.00,OVC,FEW,0.00,WeatherDisplay:10.37,2013-03-26 23:54:00,
2013-03-26 19:00:00,37.2,21.2,30.21,SW,225,0.7,3.5,52,0.00,OVC,FEW,0.00,WeatherDisplay:10.37,2013-03-27 00:00:00,
2013-03-26 19:05:00,37.0,21.0,30.21,WNW,292,1.6,3.5,52,0.00,OVC,FEW,0.00,WeatherDisplay:10.37,2013-03-27 00:05:00,
2013-03-26 19:11:00,36.9,20.9,30.20,NW,315,2.2,5.8,52,0.00,OVC,FEW,0.00,WeatherDisplay:10.37,2013-03-27 00:11:00,
2013-03-26 19:17:00,36.9,20.9,30.21,West,270,0.7,3.8,52,0.00,OVC,FEW,0.00,WeatherDisplay:10.37,2013-03-27 00:17:00,
2013-03-26 19:22:00,36.9,20.9,30.21,West,270,2.2,5.8,52,0.00,OVC,FEW,0.00,WeatherDisplay:10.37,2013-03-27 00:22:00,
2013-03-26 19:28:00,36.7,20.7,30.21,WNW,292,1.6,4.6,52,0.00,OVC,FEW,0.00,WeatherDisplay:10.37,2013-03-27 00:28:00,
2013-03-26 19:33:00,36.9,20.9,30.21,NW,315,3.8,6.0,52,0.00,OVC,FEW,0.00,WeatherDisplay:10.37,2013-03-27 00:33:00,
2013-03-26 19:39:00,36.7,20.7,30.21,NW,315,2.2,5.8,52,0.00,OVC,FEW,0.00,WeatherDisplay:10.37,2013-03-27 00:39:00,
2013-03-26 19:45:00,36.5,20.5,30.21,West,270,2.2,5.8,52,0.00,OVC,FEW,0.00,WeatherDisplay:10.37,2013-03-27 00:45:00,
2013-03-26 19:50:00,36.5,21.0,30.22,NW,315,2.2,5.8,53,0.00,OVC,FEW,0.00,WeatherDisplay:10.37,2013-03-27 00:50:00,
2013-03-26 19:57:00,36.3,20.8,30.22,NW,315,0.7,5.8,53,0.00,OVC,FEW,0.00,WeatherDisplay:10.37,2013-03-27 00:57:00,
2013-03-26 20:02:00,36.3,20.8,30.22,NW,315,1.6,4.6,53,0.00,OVC,FEW,0.00,WeatherDisplay:10.37,2013-03-27 01:02:00,
2013-03-26 20:08:00,36.3,20.8,30.22,SW,225,1.6,4.6,53,0.00,OVC,FEW,0.00,WeatherDisplay:10.37,2013-03-27 01:08:00,
2013-03-26 20:13:00,36.3,20.4,30.22,NW,315,1.6,4.6,52,0.00,OVC,FEW,0.00,WeatherDisplay:10.37,2013-03-27 01:13:00,
2013-03-26 20:19:00,36.1,20.2,30.22,West,270,0.0,1.2,52,0.00,OVC,FEW,0.00,WeatherDisplay:10.37,2013-03-27 01:19:00,
2013-03-26 20:25:00,36.3,20.4,30.22,NW,315,0.0,3.5,52,0.00,OVC,FEW,0.00,WeatherDisplay:10.37,2013-03-27 01:25:00,
2013-03-26 20:30:00,36.1,19.7,30.22,West,270,1.6,3.5,51,0.00,OVC,FEW,0.00,WeatherDisplay:10.37,2013-03-27 01:30:00,
2013-03-26 20:36:00,36.1,19.7,30.22,North,0,2.2,4.6,51,0.00,OVC,FEW,0.00,WeatherDisplay:10.37,2013-03-27 01:36:00,
2013-03-26 20:41:00,36.1,19.7,30.22,WSW,248,1.6,4.5,51,0.00,OVC,FEW,0.00,WeatherDisplay:10.37,2013-03-27 01:41:00,
2013-03-26 20:47:00,36.0,19.6,30.22,West,270,0.7,3.5,51,0.00,OVC,FEW,0.00,WeatherDisplay:10.37,2013-03-27 01:47:00,
2013-03-26 20:53:00,36.0,20.0,30.22,West,270,1.6,3.1,52,0.00,OVC,FEW,0.00,WeatherDisplay:10.37,2013-03-27 01:53:00,
2013-03-26 20:58:00,35.8,19.9,30.22,West,270,0.7,3.5,52,0.00,OVC,FEW,0.00,WeatherDisplay:10.37,2013-03-27 01:58:00,
2013-03-26 21:04:00,35.8,19.4,30.22,West,270,1.6,2.3,51,0.00,OVC,FEW,0.00,WeatherDisplay:10.37,2013-03-27 02:04:00,
2013-03-26 21:09:00,35.8,18.9,30.22,West,270,0.7,4.6,50,0.00,OVC,FEW,0.00,WeatherDisplay:10.37,2013-03-27 02:09:00,
2013-03-26 21:15:00,35.6,19.2,30.22,West,270,0.7,3.5,51,0.00,OVC,FEW,0.00,WeatherDisplay:10.37,2013-03-27 02:15:00,
2013-03-26 21:21:00,35.6,19.2,30.22,NW,315,0.0,2.3,51,0.00,OVC,FEW,0.00,WeatherDisplay:10.37,2013-03-27 02:21:00,
2013-03-26 21:26:00,35.6,18.8,30.23,West,270,1.6,3.5,50,0.00,OVC,FEW,0.00,WeatherDisplay:10.37,2013-03-27 02:26:00,
2013-03-26 21:32:00,35.6,18.8,30.22,West,270,0.0,3.1,50,0.00,OVC,FEW,0.00,WeatherDisplay:10.37,2013-03-27 02:32:00,
2013-03-26 21:37:00,35.6,18.3,30.23,NW,315,0.7,2.3,49,0.00,OVC,FEW,0.00,WeatherDisplay:10.37,2013-03-27 02:37:00,
2013-03-26 21:43:00,35.6,18.3,30.23,West,270,0.0,2.3,49,0.00,OVC,FEW,0.00,WeatherDisplay:10.37,2013-03-27 02:43:00,
2013-03-26 21:49:00,35.4,18.1,30.23,SW,225,0.0,2.3,49,0.00,OVC,FEW,0.00,WeatherDisplay:10.37,2013-03-27 02:49:00,
2013-03-26 21:54:00,35.4,18.1,30.23,West,270,0.0,3.5,49,0.00,OVC,FEW,0.00,WeatherDisplay:10.37,2013-03-27 02:54:00,
2013-03-26 22:00:00,35.4,17.7,30.23,West,270,0.7,2.3,48,0.00,OVC,FEW,0.00,WeatherDisplay:10.37,2013-03-27 03:00:00,
2013-03-26 22:05:00,35.4,18.1,30.23,SW,225,0.0,1.2,49,0.00,OVC,FEW,0.00,WeatherDisplay:10.37,2013-03-27 03:05:00,
2013-03-26 22:11:00,35.2,17.5,30.23,West,270,0.7,3.5,48,0.00,OVC,FEW,0.00,WeatherDisplay:10.37,2013-03-27 03:11:00,
2013-03-26 22:17:00,35.2,17.0,30.22,West,270,1.6,3.5,47,0.00,OVC,FEW,0.00,WeatherDisplay:10.37,2013-03-27 03:17:00,
2013-03-26 22:22:00,35.1,16.8,30.22,NW,315,0.7,2.3,47,0.00,OVC,FEW,0.00,WeatherDisplay:10.37,2013-03-27 03:22:00,
2013-03-26 22:28:00,35.1,16.8,30.23,NW,315,0.7,3.5,47,0.00,OVC,FEW,0.00,WeatherDisplay:10.37,2013-03-27 03:28:00,
2013-03-26 22:33:00,35.1,16.8,30.23,NW,315,1.6,3.1,47,0.00,OVC,FEW,0.00,WeatherDisplay:10.37,2013-03-27 03:33:00,
2013-03-26 22:39:00,34.9,16.7,30.23,NW,315,0.7,2.3,47,0.00,OVC,FEW,0.00,WeatherDisplay:10.37,2013-03-27 03:39:00,
2013-03-26 22:45:00,34.7,17.0,30.23,NW,315,1.6,5.4,48,0.00,OVC,FEW,0.00,WeatherDisplay:10.37,2013-03-27 03:45:00,
2013-03-26 22:50:00,34.9,16.2,30.23,NW,315,1.6,2.3,46,0.00,OVC,FEW,0.00,WeatherDisplay:10.37,2013-03-27 03:50:00,
2013-03-26 22:57:00,34.7,16.5,30.23,SW,225,0.7,1.6,47,0.00,OVC,FEW,0.00,WeatherDisplay:10.37,2013-03-27 03:57:00,
2013-03-26 23:00:00,34.5,16.8,30.23,North,0,0.7,1.6,48,0.00,OVC,FEW,0.00,WeatherDisplay:10.37,2013-03-27 04:00:00,
2013-03-26 23:01:00,34.5,16.8,30.23,North,0,0.7,1.2,48,0.00,OVC,FEW,0.00,WeatherDisplay:10.37,2013-03-27 04:01:00,
2013-03-26 23:02:00,34.5,16.8,30.22,North,0,0.7,1.2,48,0.00,OVC,FEW,0.00,WeatherDisplay:10.37,2013-03-27 04:02:00,
2013-03-26 23:04:00,34.5,16.8,30.23,North,0,0.7,1.2,48,0.00,OVC,FEW,0.00,WeatherDisplay:10.37,2013-03-27 04:04:00,
2013-03-26 23:09:00,34.5,16.8,30.23,West,270,0.7,2.3,48,0.00,OVC,FEW,0.00,WeatherDisplay:10.37,2013-03-27 04:09:00,
2013-03-26 23:15:00,34.3,16.7,30.23,NW,315,0.0,2.3,48,0.00,OVC,FEW,0.00,WeatherDisplay:10.37,2013-03-27 04:15:00,
2013-03-26 23:21:00,34.3,16.7,30.23,West,270,0.0,0.0,48,0.00,OVC,FEW,0.00,WeatherDisplay:10.37,2013-03-27 04:21:00,
2013-03-26 23:26:00,34.0,17.3,30.23,West,270,0.0,0.0,50,0.00,OVC,FEW,0.00,WeatherDisplay:10.37,2013-03-27 04:26:00,
2013-03-26 23:32:00,34.0,17.3,30.23,West,270,0.0,1.2,50,0.00,OVC,FEW,0.00,WeatherDisplay:10.37,2013-03-27 04:32:00,
2013-03-26 23:37:00,34.0,17.3,30.24,West,270,0.0,1.2,50,0.00,OVC,FEW,0.00,WeatherDisplay:10.37,2013-03-27 04:37:00,
2013-03-26 23:43:00,33.8,17.1,30.24,SW,225,0.0,0.0,50,0.00,OVC,FEW,0.00,WeatherDisplay:10.37,2013-03-27 04:43:00,
2013-03-26 23:49:00,34.0,17.3,30.24,NW,315,0.0,0.0,50,0.00,OVC,FEW,0.00,WeatherDisplay:10.37,2013-03-27 04:49:00,
2013-03-26 23:54:00,34.0,17.3,30.24,West,270,0.0,0.0,50,0.00,OVC,FEW,0.00,WeatherDisplay:10.37,2013-03-27 04:54:00,